Temp
22 22 23 23 24 24 24 24 24 24 25 25 25 25 25 25 25 25 25 25 25 25 25 25 25 25 25 25 26 26 26 26 26 26 26 26 26 26 26 27 27 27 27 27 27 27 28 28 28 28 28 28 28 28 28 29 28 27 26 26 26 25 25 25 25 25 25 25 23 23 24 23 22 23 24 23 22 22 22 22 22 21 21 20 20
23 22 23 23 24 24 24 24 24 24 25 25 25 25 24 25 25 25 25 25 25 25 25 25 25 25 25 25 26 26 26 26 26 26 26 26 26 26 26 27 27 27 27 27 27 27 27 28 28 28 28 28 28 28 28 29 28 27 26 26 26 25 25 25 25 25 25 25 24 24 24 24 23 23 23 22 22 22 22 21 21 21 21 20 20
23 23 23 23 23 23 24 24 23 24 24 24 25 25 24 25 25 25 25 25 25 25 25 25 25 25 26 26 26 26 26 26 26 26 26 26 26 26 27 27 27 27 27 27 27 27 27 27 28 28 28 28 28 28 28 28 28 27 26 26 26 26 26 26 25 25 25 24 25 25 24 24 24 24 22 22 22 22 22 21 21 20 20 20 20
23 23 23 23 23 23 23 23 23 24 24 24 25 25 25 25 25 25 26 26 25 25 25 25 25 25 25 26 26 26 27 27 27 27 27 27 27 27 27 27 28 27 27 27 27 27 27 27 28 28 28 28 28 28 28 28 28 28 27 27 27 26 26 26 25 25 25 24 24 25 24 24 24 24 23 22 22 22 22 21 20 20 19 19 19
23 23 23 23 24 23 23 23 23 23 24 24 24 24 24 25 25 25 25 26 25 25 25 25 25 25 25 26 26 26 27 27 27 27 27 27 27 27 27 27 28 28 28 27 28 27 27 28 28 28 28 28 28 28 28 28 28 28 27 27 27 27 26 25 25 25 25 25 24 24 24 24 24 24 23 23 22 22 21 20 20 19 18 18 18
23 23 23 23 23 23 23 23 22 23 23 23 24 24 24 25 25 25 25 25 25 25 25 25 25 25 25 25 26 27 26 27 27 27 27 27 27 27 27 27 27 27 27 28 28 28 28 28 28 28 28 28 28 28 27 28 28 27 27 27 27 27 26 26 26 26 25 25 24 24 25 24 23 23 23 23 22 22 21 20 19 18 18 17 17
24 24 24 24 24 23 23 23 23 23 23 23 24 24 25 25 25 25 24 24 24 24 25 24 25 25 25 25 25 26 26 26 26 27 27 27 27 28 28 28 27 27 27 28 28 28 28 28 28 28 28 28 27 27 27 27 27 27 27 27 26 26 26 26 26 25 25 24 23 24 25 24 23 23 23 23 23 22 20 19 18 18 17 17 16
25 25 25 25 25 24 24 24 24 23 23 23 23 24 24 24 24 24 24 24 24 24 24 24 24 24 24 24 24 25 25 26 26 26 27 27 27 27 28 28 28 28 27 28 28 28 28 28 28 28 28 27 27 27 27 27 27 27 27 27 26 26 26 26 25 25 24 23 22 23 23 24 24 23 23 23 22 22 21 19 18 17 17 16 16
25 25 25 25 25 24 24 24 23 23 23 23 23 23 23 23 23 23 23 23 23 23 23 24 24 24 24 25 24 24 24 25 25 25 26 26 26 27 27 28 28 28 28 28 28 28 28 28 28 28 27 27 27 27 27 27 27 27 27 27 26 26 26 26 25 25 24 23 23 22 22 22 23 22 22 22 22 22 21 19 18 17 17 16 16
24 24 24 24 24 24 23 23 23 22 22 22 22 22 22 23 23 22 22 23 23 23 23 23 23 24 24 24 24 24 24 24 25 25 25 26 26 26 27 27 27 28 28 28 28 28 28 28 28 28 28 27 27 27 27 27 27 27 27 26 26 26 26 25 25 25 24 23 23 22 22 22 22 22 21 21 21 21 20 19 18 17 17 17 16
24 24 24 24 23 23 23 22 22 22 22 22 22 22 22 22 22 22 22 23 22 22 22 23 23 23 23 23 23 24 24 24 24 24 25 25 25 26 26 26 27 27 27 27 28 28 28 28 28 28 28 28 27 27 27 27 27 27 27 27 26 25 25 25 25 25 24 24 23 22 22 22 22 22 22 21 20 20 20 19 18 17 17 16 16
24 24 23 23 23 23 22 22 22 22 22 21 21 21 21 21 22 22 22 23 23 22 22 22 22 23 23 23 23 23 24 24 24 24 25 25 25 25 26 26 26 26 27 27 27 27 27 27 27 27 27 28 27 27 27 27 27 26 26 27 26 26 26 25 25 25 25 24 24 23 23 23 23 23 23 22 21 21 20 19 18 17 17 17 16
24 24 23 23 23 23 22 22 22 21 21 21 20 20 20 21 21 21 21 22 22 22 22 22 22 23 23 23 23 23 23 23 24 24 25 25 25 25 25 25 25 26 26 26 25 26 26 27 27 26 27 27 27 27 27 26 25 25 25 26 26 26 26 25 25 25 25 25 24 24 24 24 24 24 23 22 22 21 20 19 19 18 18 17 16
23 23 23 23 23 22 22 22 21 21 21 20 20 20 20 21 21 21 21 21 22 22 22 23 23 23 23 23 23 23 23 23 23 24 24 24 24 24 25 25 25 25 25 25 25 25 25 25 25 26 26 26 26 26 26 25 25 25 25 25 24 25 25 25 25 25 25 24 24 24 24 24 24 25 24 22 21 21 21 20 19 19 18 16 16
23 23 23 23 22 22 22 21 21 21 20 20 20 20 20 20 20 20 21 21 21 21 22 22 23 23 23 23 23 22 22 22 22 23 23 24 24 24 24 24 25 25 24 24 25 24 24 25 25 25 25 25 25 25 24 24 25 25 24 23 23 24 25 25 24 24 24 24 24 24 24 24 24 24 23 21 22 22 21 20 20 19 17 16 15
23 22 22 22 22 21 21 21 21 20 20 20 20 20 20 20 20 20 20 20 21 21 21 22 22 22 22 22 22 22 21 21 22 22 22 23 24 24 24 24 24 24 24 24 24 24 24 24 24 24 24 25 24 24 23 23 23 23 23 23 23 24 24 24 23 23 23 23 23 23 23 23 23 23 22 22 22 23 21 20 19 18 16 15 15
22 22 22 21 21 21 20 20 20 20 20 20 20 20 20 20 20 20 20 20 20 20 21 21 21 22 22 22 22 22 21 21 21 21 21 22 23 23 23 23 23 23 23 23 23 23 23 23 23 23 23 23 23 22 22 22 22 22 22 22 23 23 24 24 23 23 22 22 23 23 23 23 23 22 22 22 22 22 21 19 18 17 16 15 15
22 21 21 21 20 20 20 20 19 19 19 19 19 19 19 19 19 19 19 19 20 20 20 21 21 21 21 21 21 20 20 20 21 21 21 21 22 22 22 22 22 22 23 23 22 22 22 22 22 22 22 22 22 22 22 22 23 22 22 22 22 22 23 24 23 22 21 21 22 23 22 22 22 22 23 22 21 22 22 19 17 17 16 15 15
21 21 20 20 20 19 19 19 19 19 19 19 19 19 19 19 19 19 19 19 19 20 20 20 20 20 20 19 19 19 19 19 19 20 20 20 20 21 21 21 21 21 22 22 22 22 22 22 22 21 21 22 22 22 22 22 22 22 22 21 21 21 23 23 21 21 20 21 21 22 21 21 21 21 22 22 21 21 22 20 19 18 17 16 16
21 20 20 19 19 19 19 18 18 18 18 18 18 18 18 18 18 18 18 18 19 19 19 19 19 19 18 18 18 18 18 18 19 19 19 19 19 20 20 21 21 21 21 21 21 22 22 21 21 21 21 21 21 21 21 22 22 22 21 21 20 21 21 21 20 20 20 20 20 20 20 19 19 19 20 20 20 20 20 19 19 18 17 17 16
20 20 19 19 19 18 18 18 18 18 18 18 18 18 18 18 18 18 18 18 18 18 18 18 18 18 18 17 17 17 17 17 18 19 19 19 19 19 20 20 20 20 21 21 21 21 21 20 20 19 20 20 20 20 21 21 21 20 20 20 20 20 20 20 20 20 19 19 19 19 19 19 19 19 19 19 19 19 18 18 18 18 17 17 16
20 19 19 19 18 18 18 18 18 17 17 17 18 18 18 18 18 17 17 17 17 17 17 17 17 17 17 17 16 16 16 16 18 18 19 19 20 20 20 20 20 20 20 20 20 20 19 19 19 18 19 19 19 19 19 20 19 19 19 20 19 20 20 19 19 19 18 18 18 18 17 17 17 17 17 17 18 18 18 18 17 17 17 16 16
19 19 19 18 18 18 17 17 17 17 17 17 17 17 17 17 17 17 17 17 17 16 16 16 17 17 16 16 16 16 15 16 17 18 18 19 19 19 20 20 20 19 19 19 19 18 17 17 17 17 18 18 18 18 18 19 19 18 19 19 19 19 19 18 18 17 17 17 16 16 16 16 16 16 16 16 16 17 17 17 16 16 16 16 16
19 19 18 18 18 18 18 17 17 17 17 17 17 17 17 17 16 16 17 17 17 16 16 16 16 16 16 16 15 15 15 16 16 17 18 18 18 19 19 19 19 19 18 18 17 17 17 17 17 17 18 18 18 18 18 18 18 17 17 17 17 17 17 17 17 16 16 16 15 15 15 15 16 16 16 16 16 17 17 17 17 17 17 16 16
19 19 18 18 18 18 18 18 18 18 18 17 17 17 16 16 16 16 16 16 16 16 16 16 16 16 16 15 15 15 15 15 16 16 17 17 17 18 18 18 18 17 17 17 17 17 17 17 17 17 17 17 17 17 17 16 16 16 16 16 16 16 16 16 16 15 15 14 14 14 14 14 15 15 15 16 16 17 17 16 16 16 16 16 15
19 19 19 18 19 19 20 20 20 19 19 18 17 17 16 16 16 16 16 16 16 16 16 16 16 16 16 16 15 15 15 15 15 15 16 16 16 16 16 16 16 17 17 17 17 17 17 16 16 16 16 16 16 16 15 15 15 15 15 15 15 15 15 15 14 14 13 13 13 13 14 14 14 15 15 15 16 16 16 15 15 15 15 14 14
19 19 19 19 20 20 20 20 19 19 18 18 18 17 16 15 15 15 15 16 16 16 17 17 16 16 16 16 15 15 15 15 15 15 15 15 15 15 15 15 16 16 17 17 17 17 17 16 16 16 16 16 16 16 15 15 15 14 14 14 14 14 14 14 13 13 13 13 13 13 13 14 14 15 15 15 15 15 15 15 15 14 14 14 14
20 20 20 20 21 20 19 19 18 17 16 16 16 16 16 15 15 14 15 15 16 16 17 17 17 17 16 16 15 15 15 15 15 15 16 15 15 15 16 15 16 16 16 16 17 17 17 17 17 17 17 17 16 16 15 15 15 14 14 14 14 13 14 14 14 14 13 14 14 14 14 14 14 14 15 15 15 15 15 15 15 14 15 15 14
21 21 21 21 22 21 20 19 18 16 15 15 15 15 15 15 15 14 14 14 15 16 16 17 16 16 16 15 15 15 15 15 15 16 16 16 16 16 16 16 16 16 17 17 17 17 17 17 18 17 17 17 17 17 16 16 16 15 15 14 14 14 14 14 14 14 14 14 14 14 14 14 14 15 15 15 14 15 15 15 15 15 15 15 14
22 22 22 23 23 23 21 19 18 17 16 15 15 14 14 15 14 14 14 14 14 15 15 15 15 15 15 15 15 15 15 15 16 16 16 16 16 16 16 16 16 17 17 17 18 18 18 18 18 18 18 18 18 17 17 16 16 16 15 15 15 14 14 14 14 14 15 15 15 15 15 15 15 15 15 14 14 15 15 15 15 15 15 14 14
23 23 23 23 23 23 22 20 19 19 18 17 16 15 14 14 14 14 14 14 15 15 15 14 14 14 14 14 15 15 15 15 16 16 16 16 17 17 17 17 17 17 17 17 18 19 19 19 19 19 19 18 18 18 17 17 17 16 16 16 15 15 15 15 15 15 15 16 15 15 15 15 15 15 15 15 15 15 15 15 15 15 15 15 14
23 23 22 22 23 23 22 21 19 19 18 18 17 16 16 15 14 14 15 15 15 15 15 14 14 14 14 14 14 15 15 16 16 16 17 17 17 17 17 17 17 17 17 18 19 20 20 19 19 19 19 18 18 18 18 17 17 17 17 16 16 16 15 16 16 16 16 16 16 16 16 16 16 16 16 16 16 16 16 16 16 16 16 15 15
23 22 21 22 22 22 21 21 20 19 19 18 18 18 17 16 15 15 15 15 15 15 15 14 14 14 14 14 14 15 15 16 16 17 17 17 18 18 18 18 18 19 19 19 19 20 20 19 19 19 19 19 19 18 18 18 18 18 17 17 16 16 16 16 16 17 17 17 17 17 17 16 16 17 17 17 17 17 17 17 17 17 16 16 15
22 21 21 21 21 21 21 20 20 20 20 19 19 19 19 18 17 16 16 16 16 15 15 14 14 15 15 15 15 15 16 16 17 17 18 18 18 19 19 19 20 20 20 20 20 20 20 20 19 19 19 19 19 19 19 18 18 18 17 17 17 17 17 17 17 18 18 18 18 18 17 17 17 17 17 17 17 17 17 17 17 17 16 16 16
21 21 21 21 21 21 21 21 21 21 21 20 20 20 19 19 19 19 18 18 17 16 15 15 15 15 15 15 16 16 16 17 17 18 18 19 19 19 19 20 20 20 20 20 20 20 20 20 20 19 19 20 19 19 19 19 18 18 18 17 17 17 18 18 18 19 19 18 18 18 18 18 18 18 18 18 18 18 17 17 17 17 17 16 16
21 21 21 21 21 21 21 21 21 21 21 21 20 20 20 20 20 20 19 18 17 17 16 15 15 15 16 16 16 17 17 17 18 18 19 19 19 19 19 20 21 20 20 20 20 20 20 20 20 20 20 20 20 20 19 19 18 18 18 18 18 18 18 18 18 18 18 18 18 18 18 18 18 18 18 18 18 18 18 17 17 17 17 17 17
21 21 21 21 22 22 21 21 20 20 20 21 21 21 21 21 20 20 19 18 18 17 16 16 16 16 17 17 17 18 18 19 19 19 20 20 20 20 20 21 21 21 21 21 21 20 20 20 20 20 20 20 20 20 19 19 18 18 18 18 18 18 18 18 18 18 18 18 18 18 18 18 18 18 18 18 18 18 18 18 17 17 17 17 17
22 21 21 21 22 22 21 20 20 20 20 21 21 21 21 21 21 20 20 19 19 18 18 18 17 17 17 18 18 19 19 19 20 20 20 20 20 21 21 21 21 20 20 21 20 20 20 20 20 20 20 19 19 19 19 19 18 18 18 18 18 18 17 18 18 18 18 18 18 18 18 18 18 18 18 18 18 18 18 17 17 17 17 17 17
21 21 22 22 22 21 21 20 20 20 20 21 21 21 21 21 21 20 20 20 20 20 19 19 19 18 18 18 18 19 19 20 20 20 20 20 20 20 20 20 20 20 20 20 20 20 20 19 19 19 19 19 19 19 19 18 18 17 17 17 17 17 17 17 17 18 18 18 18 18 18 18 18 18 18 18 18 18 18 17 17 17 17 17 17
21 21 22 22 21 21 21 20 20 20 21 21 21 21 21 21 21 21 21 21 21 21 20 20 19 19 19 19 19 19 19 20 20 20 20 20 20 20 20 20 19 19 19 19 19 19 19 19 19 19 19 19 19 18 18 18 18 18 18 18 18 18 18 18 18 18 18 18 18 18 17 17 17 17 18 18 17 17 17 17 17 17 17 17 17
22 21 21 21 21 21 21 20 20 21 21 21 21 22 21 21 21 21 21 21 21 21 21 20 20 19 19 19 19 19 19 20 21 20 20 20 20 20 20 19 19 19 19 19 19 19 18 18 18 18 18 18 18 18 18 18 18 18 18 18 18 18 18 18 18 18 17 17 17 17 17 17 17 17 17 17 17 17 17 17 17 17 17 17 17
22 21 21 21 21 21 21 20 21 21 21 22 22 22 22 22 22 22 22 22 22 21 21 21 20 19 19 19 19 19 20 20 20 20 20 20 19 19 19 19 19 19 19 18 18 18 18 18 18 18 18 18 18 18 18 18 18 18 18 18 18 18 18 18 17 17 17 17 17 17 17 16 16 16 16 16 17 17 17 17 17 17 17 17 17
21 21 21 21 21 21 21 21 21 21 22 22 22 22 22 22 22 22 22 22 22 22 21 20 19 19 19 19 19 20 20 20 20 20 20 19 19 19 19 19 19 19 18 18 18 18 18 18 18 18 18 18 18 18 18 18 18 18 18 18 18 18 18 17 17 17 17 17 17 16 16 16 16 16 16 16 16 16 16 17 17 17 17 17 17
21 21 21 21 21 21 21 21 21 21 22 22 22 22 22 22 22 22 22 22 22 22 21 20 19 19 19 19 19 20 20 20 20 20 19 19 19 19 19 19 18 18 18 18 18 18 18 18 18 18 18 18 18 18 18 18 18 18 18 18 18 18 17 17 17 17 17 17 16 16 16 16 16 16 16 16 16 16 16 16 16 16 17 17 16
21 21 21 21 21 21 21 22 21 21 21 22 22 22 21 21 22 22 22 22 22 22 21 20 20 19 19 19 19 20 20 20 20 20 19 19 19 19 19 18 18 18 18 18 18 18 18 17 17 17 17 17 17 17 17 17 17 18 18 18 18 18 17 17 17 17 17 16 16 16 16 16 16 16 16 16 16 16 16 16 16 16 16 16 16
21 21 21 21 21 21 21 21 21 21 21 22 22 21 21 21 22 22 22 22 22 21 21 20 20 19 19 19 19 20 20 20 20 19 19 19 19 19 19 18 18 18 18 18 18 18 17 17 17 17 17 17 16 16 16 16 16 17 17 17 17 17 17 17 17 17 17 16 16 16 16 16 16 16 16 16 16 16 16 16 16 16 16 16 16
21 21 21 22 21 21 21 21 21 21 21 22 22 21 21 22 22 22 22 22 22 21 21 20 20 20 20 20 20 20 21 20 20 20 20 20 19 19 18 18 18 18 18 18 17 17 17 17 17 17 16 16 16 16 16 16 16 16 16 16 16 16 17 17 17 16 16 16 16 16 16 16 16 16 16 16 16 15 15 15 15 15 15 16 16
22 22 22 22 22 22 22 21 21 21 21 21 22 21 21 22 22 22 22 22 22 22 22 21 21 20 20 20 21 21 20 20 20 20 20 19 19 19 18 18 18 18 18 18 17 17 17 17 16 16 16 16 16 16 16 16 16 16 16 16 16 16 16 16 16 16 16 16 16 16 16 16 16 15 15 15 15 15 15 15 15 15 15 15 15
22 22 22 22 22 22 22 22 21 21 21 21 21 21 22 22 22 22 22 22 22 22 22 22 21 21 21 21 21 21 20 20 20 20 20 19 19 19 18 18 18 18 18 18 17 17 17 17 16 16 16 16 16 16 16 16 16 16 15 15 15 15 15 16 16 16 16 16 16 16 16 16 15 15 15 15 15 15 15 15 15 15 15 15 14
22 22 22 22 22 22 22 22 21 21 21 21 21 21 22 22 22 22 22 22 22 22 22 22 22 21 21 21 21 21 21 21 21 21 20 19 19 19 18 18 18 18 18 18 18 17 17 17 17 16 16 16 16 16 16 16 16 15 15 15 15 15 15 15 15 15 15 16 16 16 16 15 15 15 15 15 14 15 15 15 14 14 14 14 14
22 22 22 23 23 23 22 22 22 21 21 21 22 22 22 22 22 22 22 22 22 22 22 22 22 22 21 21 21 21 21 21 21 21 20 20 19 19 18 18 18 18 18 18 18 18 17 17 17 17 16 16 16 16 16 16 16 16 16 15 15 15 15 15 15 15 15 15 15 15 15 15 15 15 14 14 14 14 14 14 14 14 14 14 14
Height
782 783 783 783 784 785 786 787 788 789 789 789 789 790 790 791 791 791 791 792 793 794 795 795 796 798 798 799 800 801 802 802 804 804 805 806 807 807 807 807 808 808 809 809 809 809 809 809 809 809 810 811 811 811 812 811 811 812 813 814 815 816 816 816 818 818 818 819 821 819 817 819 820 820 818 817 817 817 818 818 819 819 819 820 820
781 781 781 782 783 783 785 786 787 788 788 788 788 789 790 790 790 790 790 791 792 793 794 794 795 796 797 797 798 799 800 801 802 803 803 804 805 806 806 806 806 806 807 807 808 808 808 808 808 808 809 809 810 810 810 810 811 813 814 813 814 815 815 815 816 817 817 817 818 819 818 818 819 820 819 819 818 818 818 819 819 819 819 820 820
779 779 779 781 782 783 783 784 785 786 786 787 788 788 789 789 789 790 790 791 791 792 793 793 794 794 795 796 796 797 798 799 800 801 801 802 803 804 804 804 804 805 805 806 806 806 807 807 807 807 808 808 808 808 809 809 809 811 813 813 813 814 814 814 815 816 816 816 816 817 817 817 817 818 818 818 819 819 819 819 819 819 819 820 820
778 778 779 780 781 782 783 783 784 785 785 786 786 787 788 787 788 789 789 790 790 791 791 792 793 793 794 794 795 795 796 797 797 799 799 800 801 801 802 802 802 803 803 804 804 805 805 805 805 806 806 806 807 807 807 808 808 809 810 811 812 812 812 813 814 814 814 814 815 815 816 816 816 816 817 817 818 818 819 819 819 819 820 820 820
777 778 779 780 781 782 783 784 784 785 785 785 785 786 787 787 787 788 788 789 789 789 790 791 791 792 792 793 793 793 794 795 796 796 797 798 799 799 800 800 801 801 802 802 802 803 803 803 804 804 805 805 805 806 806 807 807 807 808 809 810 810 811 812 813 813 813 813 814 814 814 815 815 815 815 816 817 818 819 819 819 819 820 820 820
776 778 779 780 781 782 783 784 784 785 785 784 784 785 785 785 786 787 788 788 787 787 788 789 789 789 790 791 791 791 792 793 794 795 796 797 797 798 798 799 799 800 800 801 801 801 801 802 802 802 803 803 804 804 805 805 806 806 807 808 808 809 810 811 811 812 812 813 813 813 814 815 815 815 814 814 815 816 818 819 819 820 820 820 821
776 777 778 779 780 781 782 783 783 783 784 783 783 784 784 784 785 786 786 786 786 787 787 788 788 788 788 789 789 790 790 791 793 794 795 795 796 796 796 797 798 798 799 799 799 799 800 800 801 801 802 802 803 803 804 804 804 805 806 806 807 807 809 810 810 810 811 813 814 814 814 814 814 814 814 814 814 814 815 817 819 820 821 821 822
776 777 778 778 779 780 781 782 782 782 783 783 783 783 783 784 784 784 785 785 785 786 786 787 787 787 787 788 788 789 789 790 791 793 793 794 794 794 794 795 795 796 797 797 797 798 798 798 799 800 800 801 801 802 802 803 803 803 804 805 805 806 807 808 809 810 812 814 815 814 815 814 814 814 815 813 812 813 814 815 818 820 821 822 822
776 777 777 778 779 779 780 781 782 782 782 782 783 783 783 783 783 783 783 784 784 785 785 786 786 786 786 787 788 789 788 788 788 789 791 791 792 793 793 793 793 794 794 795 795 795 796 796 797 797 798 799 799 800 801 801 802 802 803 803 804 805 806 807 808 809 811 812 812 814 816 815 812 813 815 813 811 811 812 813 816 818 820 822 823
776 777 777 778 779 779 780 781 781 782 782 782 783 782 782 783 782 782 782 783 783 784 784 785 785 786 786 787 788 787 786 785 785 786 788 789 790 791 791 791 791 792 792 793 793 794 794 794 795 795 796 797 797 798 799 799 800 801 802 803 803 804 804 806 806 807 809 810 810 812 814 811 809 809 812 813 813 812 810 811 814 817 819 821 823
776 777 777 778 779 779 780 781 781 782 782 782 782 782 782 782 781 781 781 782 782 783 784 785 785 785 786 787 787 785 784 784 785 786 787 787 788 789 789 790 790 790 791 791 792 792 792 793 793 794 794 795 795 796 797 798 799 800 801 802 803 803 803 804 805 805 806 807 808 810 810 808 807 807 808 811 813 813 811 810 813 816 818 819 821
776 776 777 778 779 779 780 781 781 782 781 781 781 781 781 781 781 781 781 781 782 782 782 784 784 784 784 785 786 784 783 783 784 785 785 785 786 787 787 789 789 789 789 790 791 792 791 791 792 792 793 793 794 795 795 796 797 798 799 800 801 802 802 802 803 803 803 804 805 805 805 805 805 805 806 806 808 811 811 810 811 813 815 817 819
776 776 777 778 778 779 780 780 781 781 781 781 781 781 781 780 780 780 780 780 781 781 781 781 781 782 782 783 783 783 783 783 782 783 783 784 784 784 785 786 787 786 787 789 791 791 790 790 790 791 792 792 793 794 794 794 795 796 798 798 799 800 799 799 799 799 800 800 801 801 801 802 802 802 803 803 804 807 808 809 810 812 813 815 816
776 776 777 778 778 779 780 780 781 781 781 781 781 781 781 780 780 780 780 780 780 780 780 780 780 781 781 781 781 781 782 781 781 782 782 782 782 782 783 784 784 785 787 789 790 789 788 788 788 789 789 790 791 792 792 792 793 794 794 795 795 796 795 795 794 795 796 797 797 798 798 799 799 799 800 801 802 803 804 806 808 810 812 813 816
776 776 777 777 778 779 779 780 781 781 781 781 781 781 781 780 780 780 780 780 779 779 780 779 779 780 780 780 779 780 780 780 780 781 781 780 781 781 782 783 783 785 786 787 786 786 786 787 787 787 787 788 789 790 790 791 791 792 793 793 793 792 792 792 792 793 794 794 795 795 796 797 797 797 799 800 801 800 801 803 805 807 810 813 816
776 776 777 778 779 779 779 780 781 780 781 781 780 780 780 780 780 779 779 779 779 779 779 779 779 779 779 779 778 779 779 779 779 779 779 779 779 779 780 781 782 783 783 783 783 784 785 786 785 786 786 786 787 787 789 791 790 791 793 793 792 790 790 790 791 791 792 793 793 793 794 794 795 795 797 798 798 798 799 802 803 804 808 813 817
776 776 777 778 779 779 780 780 781 781 781 781 780 780 780 779 779 779 778 778 778 778 778 778 778 778 778 778 777 777 778 778 777 777 777 777 778 779 779 780 780 781 781 781 782 783 784 785 785 785 785 785 785 785 787 788 789 790 791 791 790 789 788 789 789 789 790 791 792 792 792 792 792 793 795 795 794 794 797 799 801 802 804 809 814
776 776 777 778 779 779 780 780 781 781 781 781 780 780 779 779 779 778 778 778 777 777 777 777 777 777 777 776 776 776 776 776 776 776 776 777 777 777 778 778 779 779 780 780 781 782 783 783 783 784 784 784 784 784 784 785 786 787 787 787 787 787 786 787 787 788 789 790 791 790 790 790 790 791 792 792 791 792 792 794 797 798 801 803 808
776 776 778 778 779 779 780 780 781 780 781 781 780 780 780 779 779 778 778 778 777 777 777 777 777 776 776 776 775 775 775 775 775 775 775 776 776 776 777 777 778 778 779 779 780 780 781 781 782 782 782 781 781 782 783 784 784 784 785 784 785 784 785 786 787 788 789 789 788 788 788 788 789 789 790 790 791 791 791 791 793 795 797 799 802
775 777 778 778 779 779 779 780 780 780 781 780 780 780 780 779 779 778 778 778 777 777 777 777 776 776 776 776 775 775 775 775 775 775 775 775 776 776 776 777 777 778 778 778 779 779 780 780 780 780 779 779 779 780 780 781 781 782 782 782 782 782 783 785 786 786 787 786 786 787 787 788 788 788 789 790 790 791 790 789 790 792 794 796 798
775 777 778 778 779 779 779 780 780 780 781 780 780 780 780 779 779 778 778 778 777 778 778 777 777 776 776 776 776 775 775 775 775 775 775 775 775 776 776 776 776 776 777 778 778 778 779 779 779 778 778 777 777 778 779 779 779 779 780 780 781 781 782 783 783 784 785 785 785 786 787 787 787 788 789 789 789 790 790 790 790 791 793 794 796
776 777 778 778 779 779 780 780 780 780 780 780 780 780 779 779 779 778 778 778 778 778 778 777 777 777 776 776 776 775 775 775 774 774 774 774 774 775 775 775 775 775 776 777 778 778 778 778 777 777 777 776 776 777 778 778 778 778 779 779 779 780 781 781 781 782 783 783 784 784 785 786 787 787 788 788 788 788 789 790 791 791 793 795 795
776 777 778 779 779 779 780 780 780 781 781 780 781 780 780 780 779 779 778 778 778 778 777 777 777 776 776 776 776 776 776 775 774 773 773 773 773 773 773 774 774 775 776 777 777 777 777 777 777 777 776 776 776 777 777 777 777 778 779 778 779 779 780 780 781 781 782 783 784 785 786 786 787 788 788 789 790 789 789 791 792 794 797 800 801
776 777 778 779 779 780 780 780 780 780 781 781 781 780 780 780 779 779 779 778 778 778 777 777 777 776 777 777 776 776 776 775 775 773 772 772 772 772 772 773 773 774 775 776 776 776 777 777 777 777 776 776 776 777 777 777 777 778 778 778 779 779 779 780 781 782 783 784 786 787 788 789 789 790 790 791 792 792 792 793 795 798 801 805 807
776 777 778 779 779 779 779 779 779 779 779 780 780 780 781 780 780 780 779 778 778 778 777 777 777 776 777 777 777 777 777 776 776 774 773 773 772 771 772 772 773 774 774 775 776 776 777 778 778 777 777 777 777 777 778 778 779 779 779 780 780 780 781 782 783 783 785 787 788 789 790 791 791 792 793 794 794 794 795 795 797 801 805 808 811
775 777 778 778 778 778 778 778 779 779 779 780 779 780 781 781 780 780 779 779 778 778 777 777 776 776 777 777 777 777 777 777 777 776 775 774 774 773 773 773 774 774 775 776 777 778 779 780 779 779 780 779 780 780 781 782 782 782 782 782 783 783 784 784 785 785 787 789 790 791 793 793 794 794 795 796 796 797 798 798 800 805 809 811 814
775 776 777 777 777 777 778 779 779 780 780 780 780 781 781 781 781 780 779 779 778 777 777 777 776 777 777 777 778 778 777 778 778 777 777 776 776 777 776 775 776 776 776 778 779 780 781 782 782 782 783 783 783 784 784 785 785 785 785 786 786 786 787 787 788 788 790 792 793 794 795 796 796 797 797 798 800 801 803 803 804 809 813 814 816
774 775 776 776 777 777 779 780 781 781 781 781 782 782 782 782 782 780 780 779 778 777 777 777 776 777 777 777 778 778 778 778 778 778 778 778 778 778 778 778 779 779 779 781 782 783 784 784 785 785 785 786 786 787 787 788 788 788 789 789 789 790 790 790 791 792 793 795 795 797 798 798 799 800 801 802 804 806 808 808 809 812 815 816 817
772 774 775 775 776 777 778 780 782 783 783 783 784 784 784 783 783 782 781 780 779 778 777 777 777 777 777 777 778 779 779 779 779 779 779 779 780 780 780 781 781 781 782 783 783 785 786 786 787 787 787 788 789 789 790 791 791 792 793 793 793 793 793 793 794 796 797 798 799 800 801 801 802 803 804 806 808 810 811 812 813 815 817 819 820
771 773 773 774 774 775 777 780 782 783 784 785 786 786 785 785 784 783 782 781 780 779 778 778 778 778 778 778 779 779 780 780 780 780 781 781 782 782 782 783 783 783 783 784 785 786 787 788 789 789 789 790 791 792 793 794 794 795 796 797 797 797 797 798 798 799 801 801 802 803 804 804 805 806 807 809 811 813 815 816 817 818 820 821 823
770 770 771 773 774 775 777 779 782 783 785 786 787 787 787 787 786 785 784 783 782 781 780 779 779 779 779 780 781 781 781 781 782 782 782 783 783 784 784 785 785 785 785 785 786 788 788 789 790 790 791 792 793 794 795 796 797 798 799 800 801 801 801 802 802 803 804 805 805 807 807 808 809 810 811 813 814 816 818 819 819 820 822 823 825
768 769 771 773 775 776 778 779 782 784 785 786 787 788 788 788 788 787 786 785 784 783 782 782 782 782 782 782 782 783 783 783 784 784 784 785 785 785 786 786 786 787 787 787 788 788 789 790 791 791 793 794 795 796 797 798 799 801 801 803 804 804 805 805 805 806 807 808 809 810 811 812 813 814 815 816 817 818 819 820 821 822 823 825 826
767 770 772 774 776 778 779 780 782 783 784 785 787 787 788 788 788 788 788 787 786 785 785 785 785 785 785 784 784 785 785 786 786 786 786 787 787 787 787 787 787 787 788 788 789 790 791 791 792 793 795 796 796 798 799 800 801 802 803 805 806 806 807 807 807 808 809 810 811 812 813 814 815 815 816 817 818 819 820 820 821 822 823 825 827
767 770 773 775 777 778 780 781 783 783 783 784 785 786 787 787 787 788 788 788 789 789 788 788 788 788 788 788 787 787 788 788 788 788 788 788 788 788 788 788 788 788 789 790 791 791 792 793 793 794 796 797 798 799 800 801 802 804 805 806 807 808 808 808 809 810 811 811 812 813 814 815 815 816 817 818 818 819 820 821 822 823 824 825 826
768 771 773 775 777 778 780 781 782 783 783 784 785 786 787 786 786 787 788 789 790 791 791 791 791 790 790 790 790 790 790 790 790 790 789 789 789 789 789 790 790 791 791 792 792 793 793 794 795 796 797 798 799 800 801 802 804 805 806 807 808 808 809 809 810 811 812 812 813 814 814 815 816 816 817 818 818 819 820 821 822 823 824 825 826
769 771 773 774 775 777 779 780 781 783 784 784 785 786 786 786 786 787 788 790 791 791 792 793 792 792 792 792 792 792 792 792 792 792 791 791 791 791 791 791 792 792 793 793 794 794 795 796 796 797 798 799 800 801 802 803 804 805 806 807 808 809 810 810 811 812 812 813 814 815 815 816 816 817 817 818 819 820 820 821 822 823 824 826 827
768 771 772 773 774 775 777 779 781 783 784 784 785 785 785 786 787 788 789 790 791 792 793 793 794 794 794 794 794 794 793 793 793 793 792 792 791 791 792 792 793 793 794 794 795 796 797 798 798 799 800 801 801 802 803 804 805 806 806 806 807 809 810 811 812 812 813 814 815 815 815 816 816 817 818 818 819 820 821 822 823 824 825 826 827
767 769 771 772 773 774 777 778 780 782 783 784 785 785 785 786 787 788 789 790 791 792 793 794 794 795 794 794 794 794 794 794 794 793 793 793 793 793 794 794 795 795 796 796 797 797 798 799 800 800 801 802 803 804 804 805 806 807 807 808 809 810 811 812 813 813 814 815 815 816 816 816 817 818 818 819 819 820 821 822 823 824 825 826 828
766 768 770 771 772 774 776 778 779 781 783 783 784 785 785 785 786 787 788 789 790 791 792 793 794 794 794 794 795 795 795 795 794 794 795 795 795 796 796 797 797 797 798 798 798 799 799 800 801 802 802 803 804 805 806 806 807 808 809 809 810 811 813 813 814 814 815 815 816 816 817 817 818 818 819 819 820 821 822 823 824 825 826 827 827
765 767 768 770 772 774 775 777 779 780 781 782 783 784 784 784 785 786 787 787 788 789 790 792 793 794 794 794 795 795 795 794 795 795 796 796 797 797 798 798 799 799 800 800 800 801 801 802 802 803 804 805 805 806 806 807 808 809 810 811 811 812 813 814 814 814 815 816 816 817 817 818 818 819 819 820 821 822 822 823 824 825 826 827 827
763 766 767 769 772 773 774 776 778 778 779 780 781 782 783 784 784 785 785 786 787 788 789 791 792 793 794 794 794 794 794 794 795 796 797 797 798 798 799 800 800 800 801 802 802 802 803 803 804 805 805 805 806 807 808 808 809 810 810 811 812 813 813 814 815 815 816 816 817 817 818 818 819 819 820 820 821 822 823 823 824 825 826 826 827
762 764 767 769 771 772 774 776 776 776 777 779 779 781 782 783 783 784 784 785 786 787 788 790 791 792 793 794 794 794 794 794 795 796 797 797 798 799 799 800 800 801 802 802 802 803 804 804 805 806 806 806 807 808 808 809 809 810 811 811 812 813 814 814 815 816 816 817 817 818 818 819 819 819 820 821 822 823 823 824 825 825 826 826 827
760 763 766 768 769 771 773 774 775 775 776 777 778 779 780 782 783 783 783 784 785 786 787 789 790 791 792 793 794 794 794 794 795 796 797 798 798 799 800 801 801 801 802 802 803 804 804 805 806 806 807 807 808 808 808 809 809 810 811 811 812 813 814 814 815 816 816 817 818 818 819 819 820 820 821 822 823 823 824 824 825 825 826 826 827
760 762 765 767 768 770 772 773 774 775 775 776 777 778 779 781 782 782 783 784 784 785 786 788 790 791 791 792 793 794 794 794 795 796 797 798 798 799 800 800 801 802 803 803 804 804 805 805 806 807 807 808 808 808 809 809 810 810 811 811 812 813 814 814 815 816 817 817 818 819 820 820 821 821 822 822 823 823 824 824 825 825 826 826 827
759 761 764 766 768 770 771 772 773 774 775 775 776 777 778 780 781 781 782 783 783 784 786 787 789 790 791 792 793 793 793 794 795 795 797 798 798 798 799 800 802 802 803 804 804 805 805 806 807 807 808 808 808 808 809 809 809 810 811 812 813 813 814 815 816 816 816 817 818 819 820 820 821 822 822 823 823 824 824 824 825 825 826 826 827
759 760 763 765 767 769 770 771 772 773 774 774 775 776 778 779 779 780 781 781 782 783 785 786 788 790 790 791 792 792 792 793 794 795 796 797 797 798 800 801 802 802 803 804 805 805 806 807 807 808 808 809 809 809 810 810 810 810 811 811 812 813 813 815 815 816 817 818 818 819 820 821 821 822 822 823 823 824 824 824 825 825 826 826 827
757 759 761 763 766 768 769 770 772 772 773 774 774 775 776 777 778 779 780 780 781 782 783 785 787 788 788 789 790 790 790 792 794 795 796 797 797 798 800 801 801 802 803 804 805 805 806 807 807 808 809 809 810 810 810 810 811 811 811 811 812 812 813 814 815 816 817 818 818 819 820 820 821 822 822 823 823 824 824 825 825 826 826 826 827
756 758 759 761 764 766 767 769 771 772 772 773 773 774 775 775 776 777 778 779 780 780 781 783 785 786 787 787 788 788 790 791 792 793 795 796 797 798 800 800 801 802 803 804 805 805 806 807 807 808 809 809 810 810 811 811 811 812 811 812 813 813 814 814 815 816 817 818 818 819 820 820 821 822 823 823 824 824 825 825 826 826 826 827 827
755 757 758 760 762 763 764 766 769 770 771 772 772 773 773 774 774 775 777 778 778 779 779 781 782 784 784 785 786 787 788 789 790 791 793 794 796 798 799 800 801 802 803 804 805 805 806 807 807 808 809 810 810 810 811 811 811 811 811 812 813 813 814 814 815 816 817 818 818 819 820 820 821 822 823 823 824 824 825 825 826 826 827 827 827
754 756 757 758 760 761 762 764 766 768 769 770 771 771 772 772 773 774 775 776 777 778 778 779 780 782 783 784 785 786 787 787 788 789 791 793 795 796 798 799 800 801 802 803 804 805 806 807 807 808 809 809 810 810 811 811 811 811 811 811 812 812 813 814 815 816 817 818 818 819 820 820 821 822 823 823 824 824 825 825 826 826 827 827 827
753 754 755 756 757 759 760 762 764 766 767 768 768 769 770 770 771 772 773 774 775 777 778 778 779 780 781 783 784 785 785 786 787 788 790 791 793 794 796 798 799 799 801 802 802 803 805 805 806 807 808 809 809 810 810 810 811 811 810 811 811 811 812 814 815 816 817 817 818 819 820 820 821 822 823 823 824 824 825 825 826 826 826 827 827
Wind_Speed
11 12 12 12 11 11 9 9 10 11 12 12 11 12 13 13 11 12 14 14 13 13 14 16 16 17 18 18 19 19 20 21 19 18 19 19 18 17 16 16 17 17 16 14 13 12 12 12 11 9 8 8 10 10 10 10 6 5 7 11 11 10 11 8 2 2 2 3 8 5 1 4 6 4 6 8 7 7 8 9 9 10 10 9 9
12 11 10 10 9 8 7 7 7 8 9 8 9 10 12 12 9 9 11 13 13 12 13 15 16 16 17 18 19 19 21 22 20 18 18 19 18 17 16 17 17 16 15 15 14 13 12 12 11 10 10 10 11 11 10 10 6 2 7 11 11 10 10 9 5 4 2 1 4 6 3 5 7 6 7 8 7 7 8 9 10 9 9 9 9
11 10 8 8 8 7 7 7 7 7 7 7 7 8 9 9 8 8 10 10 11 11 11 13 14 16 17 17 18 19 20 21 20 19 19 19 18 17 16 17 17 16 15 14 14 13 13 13 13 11 11 11 11 11 9 9 8 5 5 8 9 8 8 9 8 5 3 2 3 4 4 5 5 6 6 9 9 8 9 10 11 9 7 7 8
9 8 7 6 6 7 7 7 7 8 8 8 9 9 8 7 7 8 9 9 9 10 11 12 13 16 17 16 17 18 18 19 19 19 19 18 19 19 18 18 17 16 16 16 15 14 15 15 14 12 11 11 12 11 10 10 9 8 6 3 3 5 7 10 11 8 6 4 4 5 5 4 4 5 7 11 11 10 12 13 11 9 8 8 8
7 7 6 5 5 5 6 7 7 8 9 9 10 11 10 9 9 8 9 8 7 8 11 11 11 13 14 15 16 17 17 18 17 18 19 18 18 20 19 18 17 16 16 16 16 16 16 16 15 13 13 13 12 10 10 10 9 8 7 5 2 1 4 9 11 8 6 6 5 6 7 5 4 4 7 12 13 13 14 13 10 10 11 11 10
6 6 5 5 5 4 5 6 6 7 8 9 10 10 10 10 10 10 9 8 7 8 10 11 11 12 13 14 16 16 16 17 17 18 19 18 18 19 18 18 17 16 16 17 16 16 16 15 14 13 12 12 11 10 10 10 9 7 7 6 5 4 2 5 8 7 6 6 5 5 7 6 4 5 8 11 14 17 17 15 13 12 12 12 11
5 4 4 5 6 4 2 3 4 5 6 7 7 8 9 8 9 9 8 7 8 8 8 9 10 10 11 12 14 14 15 15 16 18 18 17 17 17 17 17 17 16 17 17 17 16 16 16 15 14 13 12 12 12 11 11 11 9 8 7 6 7 5 4 6 8 6 3 3 5 7 7 7 7 8 10 12 16 18 17 15 12 11 13 15
2 2 3 3 3 2 1 2 3 5 6 6 6 7 7 7 7 7 7 7 8 7 7 9 9 8 10 13 13 11 12 13 14 15 16 17 18 17 17 17 17 17 17 17 17 17 17 17 17 17 16 15 15 14 14 13 12 11 11 9 8 8 7 5 5 6 4 1 5 6 5 6 7 7 7 11 13 15 16 18 16 14 13 15 17
1 2 2 2 2 1 2 2 4 5 6 7 7 7 7 7 7 6 6 7 7 7 9 10 10 9 11 14 13 11 12 14 14 15 16 17 18 18 18 17 17 17 17 17 17 17 17 18 18 18 17 16 16 16 16 16 13 11 9 8 9 9 8 7 6 4 4 6 6 5 4 5 6 6 8 10 12 16 18 18 18 17 17 16 14
2 2 2 1 1 0 2 3 4 6 6 7 8 8 8 8 7 7 7 7 7 8 8 8 9 9 9 10 10 11 14 16 16 17 17 17 17 18 19 18 18 18 17 17 17 16 16 17 17 17 17 18 18 18 18 18 17 15 12 9 8 8 8 8 6 3 5 7 6 4 6 8 9 10 11 10 7 14 20 20 19 19 18 16 12
2 2 2 1 0 0 2 3 4 5 6 7 8 9 9 9 9 9 9 9 9 9 8 9 11 9 8 9 10 12 16 17 15 16 18 19 19 19 19 19 19 18 17 17 17 17 17 16 16 16 16 17 18 18 18 19 19 19 18 14 11 9 9 10 9 6 5 7 8 8 10 11 13 14 12 7 6 13 19 21 21 21 18 14 12
2 2 1 1 0 1 2 3 3 5 6 7 8 9 10 10 10 10 9 9 10 10 10 10 10 9 8 9 10 12 14 15 15 16 17 19 19 18 18 18 17 16 15 15 16 17 17 17 17 17 16 16 16 17 19 20 20 20 19 18 16 15 14 13 13 11 9 8 9 10 11 12 13 13 11 7 9 13 16 20 21 20 17 15 14
2 1 1 1 1 2 3 3 3 4 6 7 8 9 10 10 10 10 11 10 10 10 11 11 11 10 9 10 12 13 12 12 12 13 15 18 18 17 17 17 16 15 14 14 16 17 16 15 15 15 15 14 15 16 18 17 15 16 17 17 17 17 17 17 18 18 16 14 13 13 13 13 12 13 11 9 12 17 18 19 20 19 18 17 17
2 2 1 2 2 2 3 3 4 5 5 6 7 8 8 9 9 10 10 11 11 11 11 11 11 11 11 12 13 14 13 12 12 12 13 15 16 17 16 15 15 15 15 15 14 13 12 11 12 14 14 13 12 13 14 13 13 14 15 14 13 15 17 19 21 21 20 18 17 17 17 15 14 14 11 10 16 21 21 20 20 19 19 19 20
1 1 2 3 2 3 3 3 4 5 5 6 6 6 7 7 8 9 10 10 10 10 11 11 11 11 11 12 13 13 12 12 12 11 12 13 14 15 14 13 12 13 14 13 10 8 9 11 13 16 17 16 15 14 12 12 12 14 12 11 13 15 17 19 18 18 19 20 20 19 18 17 15 13 11 11 14 17 18 21 23 23 23 22 22
2 1 2 2 3 3 3 4 5 5 5 6 6 6 7 7 8 9 9 9 10 10 10 11 11 11 12 11 11 10 9 9 9 9 9 11 12 13 13 11 10 10 10 11 11 11 12 13 14 15 16 17 18 17 15 11 10 12 13 15 17 18 19 18 16 15 17 19 20 20 18 17 15 13 12 12 14 15 18 22 25 27 27 24 21
1 0 1 2 3 3 3 3 5 5 5 6 7 7 7 8 8 9 9 9 10 10 11 11 11 12 12 12 11 8 5 7 8 8 9 9 11 13 13 12 12 12 13 13 14 14 14 14 14 15 15 14 14 13 13 11 9 10 13 15 16 18 20 18 17 17 17 17 19 20 18 16 16 15 14 15 17 18 21 27 30 31 29 22 16
1 2 2 2 3 4 3 3 4 5 6 6 7 7 7 8 8 8 8 9 10 10 11 11 11 11 10 10 9 6 2 4 6 7 8 8 9 11 12 12 13 16 17 17 15 14 14 14 14 14 13 12 12 11 12 12 12 12 13 13 13 17 20 20 19 18 17 15 17 18 17 15 14 16 17 17 19 20 21 26 32 34 28 21 19
2 3 3 3 4 4 3 4 4 5 5 6 6 6 7 7 8 8 8 8 9 10 10 11 11 10 9 8 7 6 5 3 4 5 6 6 6 8 11 12 12 13 15 17 15 14 14 13 11 12 12 13 13 13 13 13 14 16 16 14 14 18 21 20 17 14 14 16 18 17 14 12 11 12 15 16 17 20 22 25 32 34 28 24 26
4 4 4 4 4 4 4 4 5 6 6 6 6 6 6 6 6 7 7 7 8 9 9 10 9 9 8 7 6 6 6 5 4 4 4 4 4 4 6 8 9 10 12 13 13 13 13 10 8 9 11 12 13 12 12 13 13 14 14 13 14 17 18 18 16 14 14 17 17 13 9 7 7 8 11 13 17 20 20 23 32 35 31 30 30
6 5 3 3 3 4 5 5 5 5 5 5 6 6 5 5 5 5 6 6 6 7 8 9 8 7 6 6 6 5 5 6 7 7 5 5 5 4 3 5 7 9 8 9 10 11 8 5 4 5 5 6 8 8 9 11 11 10 11 11 12 14 14 14 15 14 13 12 11 9 8 8 8 10 14 17 19 19 16 19 27 31 30 31 30
5 4 3 4 5 5 5 5 5 5 5 5 6 6 5 5 5 4 4 5 5 5 6 6 6 5 4 4 4 4 5 6 7 8 8 7 8 8 7 7 8 8 7 7 6 4 2 1 1 4 5 4 5 5 6 7 6 4 6 8 9 10 11 10 9 9 10 10 10 9 8 7 7 8 10 11 11 12 13 14 20 24 25 28 30
6 5 4 5 5 4 4 5 5 5 5 5 6 7 7 6 6 6 5 4 4 4 4 5 4 3 3 3 3 4 7 8 7 6 6 6 6 7 8 9 9 8 6 4 4 5 5 5 5 5 6 6 5 5 4 5 4 3 2 5 6 6 6 6 7 9 11 12 12 11 10 8 7 7 7 8 9 11 13 15 17 20 20 20 24
7 5 5 5 4 3 3 4 4 3 4 6 7 7 7 6 6 7 7 5 3 3 4 4 4 4 4 4 4 5 7 11 13 11 6 3 2 3 4 5 6 5 3 1 3 5 6 7 7 6 6 6 5 5 5 5 5 5 5 3 3 3 5 9 12 15 16 17 17 17 16 15 15 16 18 21 21 21 21 21 20 20 20 21 24
8 6 6 5 3 2 4 4 3 3 4 5 7 7 8 7 6 6 7 6 4 4 3 2 3 4 4 4 5 5 6 11 16 17 15 11 8 5 3 1 2 3 4 5 5 6 8 10 10 10 10 11 12 12 13 12 10 10 11 11 13 15 16 18 20 21 22 20 19 18 17 17 20 22 24 25 26 25 25 26 26 25 25 27 28
9 7 6 5 3 4 4 4 5 4 4 6 8 9 8 7 6 5 5 5 5 4 2 1 3 4 4 5 6 5 6 8 13 16 18 19 18 16 13 11 10 10 11 13 14 15 17 18 19 20 20 20 20 20 19 18 17 16 17 18 19 21 21 22 23 23 22 20 19 18 18 19 21 23 25 27 28 28 29 32 32 30 30 30 28
9 8 7 5 4 4 7 9 9 8 8 8 9 10 9 9 11 11 8 6 5 4 3 1 2 4 4 5 6 5 5 6 8 9 10 12 14 15 17 18 18 20 23 25 25 26 26 25 25 25 25 23 22 21 20 19 19 19 19 20 20 20 20 20 22 22 20 20 20 21 21 22 24 25 27 29 29 29 30 32 33 31 29 28 26
9 9 9 7 7 9 11 11 10 10 11 12 10 10 8 9 13 14 12 10 8 5 5 5 4 4 6 7 7 6 6 6 6 6 7 9 10 12 16 19 21 25 27 27 25 24 22 20 20 20 21 20 20 20 21 20 21 21 20 20 20 20 21 24 25 24 23 23 24 23 24 25 26 27 28 28 27 26 28 29 29 28 26 25 24
10 10 9 8 9 12 12 13 13 13 14 15 15 13 10 8 9 12 13 13 11 8 7 9 9 8 9 10 9 8 7 8 8 8 10 13 14 15 18 20 22 24 24 23 20 17 16 16 16 17 18 19 19 19 20 20 20 21 20 20 20 21 24 26 26 25 24 25 26 25 26 26 27 26 27 26 24 23 24 25 25 24 23 23 21
12 11 9 8 9 11 13 14 14 13 13 14 15 16 15 13 12 13 13 13 12 11 10 9 9 9 12 13 12 11 12 12 13 13 14 14 14 14 15 17 18 19 18 17 16 16 15 14 14 14 15 16 16 16 17 17 18 19 19 20 21 22 23 24 24 23 23 24 24 24 25 25 24 24 24 23 21 21 21 22 22 22 21 20 19
13 10 10 9 8 9 12 13 13 11 11 11 11 13 15 17 18 17 16 15 15 15 14 13 12 13 14 16 16 15 16 16 16 16 14 13 13 13 14 14 14 14 11 7 9 13 15 13 13 14 15 15 16 16 17 17 17 18 19 19 19 20 21 22 22 23 23 22 22 22 23 22 21 21 21 20 19 19 19 20 20 20 19 17 17
10 10 11 11 9 8 10 12 12 11 10 10 10 10 11 13 16 18 18 17 17 18 17 17 16 16 16 16 16 15 16 16 16 16 15 14 13 12 10 8 7 7 5 2 6 13 15 13 14 15 16 16 16 17 17 17 17 17 17 17 16 17 19 21 21 21 20 20 19 19 18 17 16 15 15 15 15 16 16 16 17 17 17 17 16
11 13 12 10 9 8 10 12 11 11 11 11 11 10 9 10 12 15 18 18 18 18 18 18 18 17 16 17 17 17 17 17 17 16 14 13 11 8 7 7 5 4 6 8 11 15 15 14 15 17 16 16 16 16 16 16 16 16 15 15 14 13 13 13 13 13 13 13 13 13 13 12 12 12 12 12 13 13 14 13 14 15 16 16 16
14 14 11 11 9 8 9 10 10 10 11 12 12 10 8 9 10 11 12 13 14 15 16 16 16 16 16 17 18 18 18 17 15 14 13 13 13 14 15 16 16 14 14 15 16 16 14 14 16 17 17 16 16 16 16 15 15 15 15 14 12 10 9 8 8 9 11 11 11 12 12 11 11 11 11 11 12 12 13 13 13 14 14 14 15
15 13 12 12 11 10 10 9 9 8 8 10 11 9 8 8 8 8 9 10 10 11 11 11 13 15 15 15 15 15 14 13 12 13 13 13 14 14 12 14 16 17 16 17 17 15 13 12 13 16 16 15 15 15 15 15 15 15 13 12 11 10 9 9 9 10 11 11 11 11 11 11 11 11 11 11 11 12 12 12 12 13 14 14 14
14 13 13 13 12 12 11 10 9 8 7 8 9 8 6 6 8 9 10 10 10 11 10 10 12 13 13 12 12 12 11 10 9 9 7 6 4 3 3 9 14 15 13 14 15 15 14 13 14 15 15 14 13 14 15 15 14 12 11 11 12 11 10 9 9 10 11 11 10 9 10 10 10 10 10 10 10 11 11 11 12 12 12 13 14
13 13 13 13 12 12 11 10 9 9 8 8 9 7 6 8 10 10 11 12 12 12 11 10 10 9 9 10 11 10 10 10 10 9 9 7 4 3 5 10 13 13 12 12 13 15 16 14 12 13 13 12 12 13 13 13 12 11 11 13 14 13 11 9 8 9 10 10 8 8 8 8 9 10 10 10 10 10 10 11 11 11 11 12 13
13 14 14 14 12 12 11 10 11 11 9 8 8 8 8 10 11 11 12 12 12 12 12 11 8 7 8 10 10 10 11 10 8 8 10 10 9 10 10 10 10 11 11 11 11 12 14 12 11 11 11 11 11 11 10 10 10 11 12 13 14 12 11 9 8 8 9 8 7 8 8 8 8 8 8 9 9 9 10 11 10 11 12 12 11
15 15 15 14 13 12 11 11 11 11 10 8 9 9 9 10 12 12 11 11 11 12 12 12 10 9 10 9 8 7 5 4 4 5 8 9 9 10 10 9 9 10 9 9 9 10 11 12 11 11 11 11 10 10 10 10 9 8 9 10 10 9 8 7 6 7 8 8 7 7 7 7 8 7 7 8 8 8 9 9 9 10 11 10 9
16 16 16 15 14 12 12 11 11 11 11 10 11 10 9 10 11 11 11 11 11 12 13 12 12 11 9 7 6 4 4 2 5 7 7 7 8 9 9 9 9 9 8 8 9 9 10 10 10 10 10 10 10 11 11 10 9 9 8 8 7 7 7 6 5 6 7 7 7 7 7 7 7 6 6 8 8 7 7 7 8 9 9 8 7
17 17 18 17 14 12 12 12 12 12 12 12 11 10 10 10 11 11 11 10 10 11 12 13 13 12 10 7 6 4 3 2 7 7 6 6 7 7 8 8 8 8 9 8 8 9 10 9 8 8 8 8 9 9 9 8 8 8 8 8 7 7 7 6 6 7 7 7 7 7 7 7 6 6 7 8 7 6 7 7 7 8 8 7 6
17 18 18 16 13 12 12 12 13 13 12 12 12 12 11 11 11 10 10 10 9 10 10 11 11 10 9 10 8 4 1 3 6 6 6 6 7 6 7 7 7 8 9 9 9 9 9 9 8 8 8 8 8 7 7 7 8 7 7 7 7 7 7 7 7 7 7 6 7 7 7 7 6 7 9 8 6 5 6 6 6 6 5 5 6
17 17 16 14 12 13 13 13 13 13 12 12 12 12 12 11 10 9 9 9 8 9 9 9 8 6 8 11 10 5 2 4 5 5 6 6 6 6 6 6 7 8 8 8 9 9 9 9 9 8 8 8 7 6 6 6 6 6 7 7 6 7 8 8 7 6 6 7 7 7 7 6 6 6 8 7 5 5 5 5 5 6 5 4 6
16 16 15 14 13 13 14 14 13 13 12 12 12 12 11 11 10 9 9 9 8 8 8 9 8 7 9 12 11 7 4 4 5 6 6 6 5 6 7 7 8 8 7 8 8 8 8 9 9 8 8 7 7 7 6 5 4 5 6 6 5 7 8 8 7 6 7 8 8 7 6 6 5 5 6 5 4 5 5 4 4 5 5 6 7
15 14 15 14 14 14 14 14 13 13 12 12 12 11 12 11 10 10 10 10 9 9 9 9 9 8 10 12 11 8 6 6 6 6 6 5 6 7 8 8 8 7 7 8 8 8 8 9 8 8 8 7 6 6 6 6 6 6 6 6 5 5 7 7 6 7 8 8 8 6 6 6 6 5 6 5 3 4 5 4 4 4 4 5 8
15 15 16 15 15 14 13 12 13 13 13 12 12 12 12 12 11 11 11 10 10 10 10 10 10 10 11 12 13 11 8 7 7 6 6 7 7 8 8 8 8 7 8 8 8 7 8 8 8 8 7 6 6 5 4 4 6 7 7 5 5 6 7 7 6 7 8 7 7 7 7 6 6 6 6 5 3 4 5 4 4 4 4 4 6
19 18 18 17 15 14 13 13 13 13 13 13 13 12 13 13 12 12 11 11 11 12 12 12 12 12 12 14 14 11 8 7 7 7 7 7 8 8 8 8 8 8 8 9 8 8 8 8 7 8 7 6 6 6 5 4 5 4 3 2 3 6 9 8 6 6 7 7 6 6 7 6 6 7 5 3 3 4 5 4 4 4 4 3 3
18 17 17 17 16 16 15 15 14 14 13 13 13 13 13 14 13 12 11 11 12 13 13 14 13 12 12 13 12 9 9 9 10 10 9 8 8 9 9 9 8 8 9 9 8 8 8 8 7 8 7 6 6 6 5 6 6 4 4 5 4 5 8 10 8 8 8 7 5 5 6 6 6 7 5 3 3 5 4 4 4 4 3 2 2
16 15 16 17 17 16 16 15 14 14 14 14 13 13 14 14 13 12 13 13 12 11 11 13 14 13 12 11 10 10 11 12 13 13 13 11 10 10 10 9 9 9 9 9 9 8 9 9 8 8 7 7 6 6 5 6 5 4 5 6 7 7 8 9 9 9 9 7 4 4 6 5 6 7 6 4 4 4 4 4 4 4 4 4 3
16 16 16 17 17 17 17 16 15 15 15 15 14 14 15 14 13 13 14 14 13 11 10 11 13 12 11 10 10 10 11 11 11 12 14 13 12 12 11 11 11 11 10 10 10 10 10 9 9 8 8 7 7 7 7 6 5 4 3 3 5 9 11 10 9 10 10 8 5 5 6 6 6 7 6 4 4 4 4 4 4 5 4 4 4
17 17 17 18 18 18 17 16 16 16 16 16 16 16 15 15 14 14 14 13 13 12 11 10 10 11 12 13 12 10 10 10 10 11 12 14 15 16 14 13 13 13 12 12 12 11 11 11 10 10 9 8 7 7 7 5 2 1 1 2 2 6 12 14 12 11 11 9 7 5 5 6 7 6 5 5 5 4 4 4 4 4 4 4 4
Wind_Direction
192 195 194 194 199 205 209 210 218 219 213 213 216 217 230 234 221 219 230 232 235 238 229 226 230 223 215 216 216 217 217 217 216 216 218 221 224 228 232 234 231 228 231 239 247 255 261 266 266 259 263 272 275 279 282 275 246 199 221 218 210 214 209 204 216 210 214 132 142 168 247 174 184 190 168 155 139 138 132 126 134 143 151 165 178
190 193 194 198 202 209 213 217 229 224 214 221 226 226 237 240 226 217 226 229 233 239 235 229 227 224 222 220 217 219 219 216 214 215 217 219 222 228 231 235 236 228 225 232 238 245 257 267 268 263 262 263 262 265 270 275 277 235 222 213 200 212 216 204 209 222 211 169 164 162 166 192 184 161 164 167 153 145 136 126 129 136 150 169 179
180 187 193 202 206 214 223 232 243 236 225 232 238 241 245 244 236 228 224 226 232 239 239 234 229 229 229 224 221 223 220 213 212 216 220 219 219 226 229 230 232 230 230 235 237 238 245 253 256 253 252 254 256 261 271 281 293 295 250 219 200 207 212 200 206 216 179 180 205 169 167 198 175 141 154 163 156 150 138 128 130 135 143 157 162
167 182 194 206 212 217 231 242 247 242 236 240 247 253 258 254 248 243 234 229 233 241 246 245 241 238 235 230 227 227 223 218 215 217 222 223 221 225 230 232 232 230 231 236 238 239 243 246 249 250 250 256 258 262 271 276 281 285 284 271 205 190 196 201 205 203 188 184 190 182 181 183 163 148 145 144 145 144 133 127 129 129 121 121 122
159 177 192 208 218 225 238 244 246 245 244 247 249 252 255 254 251 250 247 243 245 253 254 252 246 238 237 237 231 226 226 227 226 223 224 226 226 227 229 232 236 235 236 239 238 239 243 244 244 244 244 250 254 255 261 265 269 278 290 305 309 203 187 201 204 206 205 195 186 196 204 192 165 161 149 143 142 138 130 125 125 120 108 101 97
161 169 187 198 205 227 250 252 251 254 253 253 254 254 254 250 246 246 249 252 259 262 262 259 250 241 244 246 238 232 231 231 230 231 229 227 229 231 230 230 235 238 241 245 243 240 243 246 247 247 245 247 252 254 258 263 268 276 282 278 265 268 259 215 211 212 212 205 202 211 211 203 191 179 169 162 154 142 130 120 116 119 116 106 98
166 176 202 195 183 193 245 275 273 276 278 276 273 273 272 264 252 247 251 263 268 263 262 266 263 257 258 257 249 238 234 234 236 236 235 234 234 234 232 231 233 237 240 244 247 246 245 247 250 254 256 253 253 256 260 265 265 263 268 272 263 260 265 246 216 209 208 214 238 236 218 209 212 204 188 179 167 153 142 130 117 114 119 116 112
188 213 236 224 194 193 255 314 317 321 318 315 310 299 294 287 270 260 261 272 276 270 266 268 271 272 265 261 261 256 248 247 246 244 242 241 241 241 237 233 232 235 239 241 244 245 245 247 246 247 250 251 250 253 257 259 262 260 256 259 260 256 256 256 233 210 192 249 282 279 260 228 232 233 208 184 168 161 157 146 131 121 121 121 118
204 218 230 251 255 304 14 360 347 345 344 346 340 325 317 310 293 278 271 275 283 288 290 285 279 276 267 261 264 270 264 249 238 242 244 239 240 243 242 239 236 236 240 242 243 244 243 244 243 241 243 247 247 248 249 250 257 264 261 252 249 249 250 254 254 218 183 212 248 286 289 254 263 269 239 213 181 166 162 152 138 131 128 125 122
180 204 209 222 231 19 26 11 356 354 355 356 349 342 337 328 318 311 303 296 291 288 292 289 279 277 270 262 259 258 255 243 228 233 241 240 243 245 242 242 242 239 242 245 246 247 247 246 245 243 244 245 245 246 246 247 252 259 264 257 243 241 245 251 261 247 197 201 210 233 242 238 244 244 242 248 218 168 158 150 140 135 133 128 122
182 195 183 122 197 333 16 360 349 353 353 348 343 343 342 336 331 329 325 319 310 301 292 278 274 274 266 264 265 257 253 250 244 246 247 244 249 251 243 244 248 244 242 246 249 250 252 255 256 253 251 247 245 246 246 248 252 255 258 258 253 254 255 252 250 239 215 198 191 202 218 222 232 237 233 231 207 173 161 155 150 145 145 141 133
190 189 166 145 237 351 6 349 338 345 347 344 341 338 336 335 334 333 330 324 320 316 308 291 280 275 264 262 264 261 262 261 259 260 253 245 251 255 246 245 253 253 248 254 261 258 252 255 259 260 260 257 254 254 253 252 253 256 260 261 259 260 259 255 249 244 244 238 219 214 219 220 228 237 232 213 197 184 169 163 162 160 157 153 145
205 197 202 255 279 323 341 337 335 344 346 344 341 335 331 331 331 331 329 324 322 321 317 309 298 289 280 270 261 261 271 272 265 264 258 252 259 263 251 243 251 260 259 259 265 265 258 256 257 259 263 266 266 264 260 258 256 258 262 265 264 261 257 254 251 249 249 245 239 240 238 232 233 236 232 213 196 190 179 171 173 173 164 157 153
227 235 260 287 294 306 322 330 330 339 343 336 333 328 325 326 323 323 323 319 319 318 315 313 309 299 291 282 273 271 275 274 272 271 266 262 264 263 258 253 253 259 260 256 258 264 264 260 259 260 264 269 271 267 265 265 257 248 251 259 263 259 254 250 250 251 249 242 241 246 245 241 243 240 230 208 195 190 183 177 176 171 160 155 155
220 259 294 308 309 304 319 329 326 332 331 323 322 322 324 328 326 324 325 321 319 318 314 313 312 308 304 296 287 280 275 273 279 281 275 270 266 260 259 264 263 259 258 258 260 271 277 273 273 272 270 271 273 273 279 281 263 247 245 251 252 251 251 248 245 246 245 241 242 246 248 250 248 237 226 215 200 190 185 183 176 165 153 145 146
222 235 280 318 334 337 346 342 328 328 326 322 326 330 333 335 331 330 331 326 322 321 317 313 312 311 313 309 300 288 273 269 281 286 275 266 261 257 256 263 270 265 263 269 276 283 289 290 288 284 278 279 281 279 279 279 263 249 250 252 250 252 255 252 245 242 243 244 244 243 244 248 244 232 225 219 211 199 184 172 165 157 145 136 141
230 357 3 345 353 3 3 345 327 328 332 330 330 332 331 330 328 331 332 329 327 325 320 318 316 314 315 317 319 314 281 267 277 281 274 261 253 252 252 254 261 263 266 278 285 288 291 292 291 287 281 280 287 286 277 269 259 252 253 255 256 257 254 250 246 245 244 246 248 247 243 242 239 236 232 223 219 209 180 160 156 154 146 139 147
112 61 41 11 17 22 6 343 332 331 332 332 331 331 331 332 332 333 329 325 324 323 322 319 318 321 328 335 343 360 354 285 284 282 279 266 248 244 245 248 258 264 268 275 282 286 289 289 289 287 278 269 271 278 281 277 270 265 260 256 258 259 255 250 251 255 253 249 248 247 245 243 242 242 238 227 222 216 196 175 166 161 153 147 150
122 91 71 43 33 25 360 347 350 343 336 337 340 336 331 332 333 333 332 328 323 325 327 325 325 334 345 351 3 29 42 4 303 289 288 274 252 247 245 245 254 267 273 276 278 285 291 292 287 279 269 263 263 268 278 280 272 266 261 250 247 254 257 252 252 261 263 251 244 242 239 235 235 239 240 232 222 218 214 200 182 171 163 156 152
102 80 66 46 27 17 12 13 8 355 345 345 348 339 329 328 331 334 338 334 327 328 330 330 333 342 348 349 354 5 12 357 316 297 295 276 267 271 254 245 257 277 285 284 282 286 291 291 282 271 263 263 268 272 275 273 264 259 258 250 244 250 257 255 250 253 255 249 246 243 230 216 217 224 224 216 208 206 206 200 190 182 172 163 159
96 77 65 55 42 30 23 18 7 356 354 351 346 338 336 339 341 342 344 336 327 326 325 323 327 334 335 337 344 346 343 330 312 305 303 284 272 271 245 236 256 271 282 287 285 286 289 283 275 287 286 276 277 277 271 268 264 255 249 244 241 244 252 259 255 246 237 230 221 207 195 189 181 178 184 191 199 204 204 199 194 188 176 165 160
97 86 83 75 60 42 27 19 10 6 8 360 349 349 354 356 355 357 355 346 338 336 333 328 326 328 330 339 360 8 1 344 323 309 300 287 271 261 245 235 243 253 273 302 317 327 357 45 3 337 344 341 328 317 300 297 301 284 254 252 256 256 256 257 248 221 197 181 168 160 162 165 158 162 180 195 206 209 204 192 185 180 172 163 156
105 95 84 73 61 47 37 32 27 20 16 11 7 8 8 3 6 22 26 4 352 357 356 352 353 358 7 24 43 44 37 30 17 347 317 297 276 262 250 245 249 255 271 315 25 57 49 35 29 8 358 360 359 354 343 335 347 7 327 298 301 295 267 231 192 160 143 132 124 114 106 108 108 106 113 108 105 122 131 128 135 144 146 146 146
116 108 96 89 77 67 69 60 55 55 45 34 26 22 19 7 4 22 36 30 21 27 20 13 25 36 37 42 52 56 52 45 38 32 23 1 302 277 260 249 247 241 225 189 61 53 44 43 45 37 34 44 54 61 62 56 61 75 76 77 90 109 143 152 142 127 115 106 101 96 92 95 99 101 105 107 106 108 111 113 120 128 132 137 140
120 116 112 109 109 150 157 128 104 119 115 81 56 40 31 22 9 13 27 34 38 47 50 43 53 61 61 61 65 65 61 56 53 53 56 59 57 48 41 103 166 157 135 113 87 70 69 73 76 76 78 83 86 85 83 83 88 97 104 109 113 115 119 121 116 108 102 97 94 93 91 95 102 106 109 111 112 113 114 115 118 123 128 132 134
123 120 117 122 154 188 167 106 69 63 86 89 78 62 45 36 37 37 36 40 43 41 39 81 111 107 98 96 93 80 72 76 75 70 66 63 64 68 76 89 101 105 102 98 93 90 88 86 86 86 84 83 83 83 83 85 88 94 101 104 105 105 106 106 103 99 96 93 91 92 93 96 102 107 109 109 109 111 113 114 115 118 123 126 127
135 133 127 125 125 102 75 62 53 39 35 47 61 63 56 51 54 55 53 50 45 24 353 341 155 141 121 117 115 92 77 88 92 86 76 65 62 74 86 93 100 102 101 100 97 95 94 91 88 87 84 81 80 80 81 83 85 87 90 91 90 91 94 96 97 97 96 95 94 93 95 98 101 103 106 107 107 110 115 117 117 119 123 124 121
149 144 137 133 126 112 92 78 71 59 51 53 57 58 55 49 47 49 50 49 46 32 12 19 50 94 109 113 105 84 79 95 100 101 98 83 78 91 100 102 105 106 105 104 101 98 95 92 88 87 87 84 83 82 83 84 85 85 86 86 85 88 94 98 98 98 99 101 100 96 96 98 99 101 104 105 108 114 120 120 118 120 124 123 116
146 140 143 147 144 136 118 99 91 84 77 74 72 68 67 66 57 53 54 53 53 56 53 48 53 74 97 106 101 93 98 106 104 105 108 102 99 105 108 110 112 111 107 104 101 98 95 93 92 93 93 91 89 87 86 85 84 83 84 85 86 91 97 101 100 99 102 104 101 98 97 98 99 103 106 106 108 116 121 121 120 122 123 119 115
153 150 156 160 149 135 122 112 106 102 95 89 83 75 73 76 74 68 64 64 66 71 76 77 79 89 99 103 103 104 107 106 105 108 114 116 116 117 120 122 122 118 110 106 106 105 101 97 97 98 98 97 95 93 90 88 88 87 85 85 89 92 95 97 99 101 105 106 103 101 101 101 101 104 107 108 112 118 122 124 125 124 120 117 114
169 155 143 140 131 121 119 117 114 112 107 103 99 89 78 74 72 69 69 72 76 77 79 84 92 98 103 106 106 105 103 104 110 117 123 127 128 127 130 133 133 131 127 120 114 111 105 101 101 101 98 96 96 97 97 96 95 95 93 91 91 93 96 98 100 103 107 108 108 105 103 102 103 105 109 114 119 123 127 130 131 126 122 121 122
162 116 111 121 119 115 121 121 121 124 123 119 119 113 97 83 76 72 70 70 75 79 80 83 87 93 100 108 112 112 111 114 120 125 126 124 121 121 128 134 139 147 150 94 83 98 101 101 103 101 98 98 100 101 104 105 104 103 102 101 101 105 109 108 105 106 109 111 111 109 106 106 109 113 119 126 130 132 134 136 136 131 128 129 131
140 113 120 133 129 126 130 131 137 147 150 145 140 133 122 112 100 89 80 72 72 78 84 89 93 95 99 105 111 117 121 122 123 123 121 117 113 108 99 86 80 112 133 118 100 97 99 100 101 100 101 105 107 107 107 107 107 108 109 109 111 117 123 122 115 115 119 119 119 120 120 122 126 129 131 133 134 134 135 132 130 129 129 132 135
127 127 144 147 141 141 141 145 158 167 164 156 148 141 142 145 140 124 105 87 76 77 84 94 101 103 104 107 111 115 119 121 121 120 117 112 105 97 88 80 76 83 102 108 101 97 101 107 110 114 117 117 115 115 112 109 109 110 111 114 117 121 130 138 134 127 122 120 123 127 129 132 135 134 133 132 130 130 130 129 129 130 131 134 138
127 144 159 154 155 161 162 166 174 172 161 149 142 149 168 168 149 126 112 102 93 86 85 96 107 111 112 115 117 120 122 123 123 122 121 117 111 106 103 101 97 95 101 106 107 109 112 108 105 110 115 115 114 115 113 109 111 116 122 128 131 126 122 121 117 113 112 113 114 118 121 125 129 130 131 134 134 131 130 131 132 133 136 140 141
143 161 168 166 168 170 167 167 164 160 163 159 153 161 171 150 126 113 107 106 106 101 98 103 110 112 114 117 119 120 121 119 118 116 115 119 133 153 141 121 115 112 112 113 114 114 108 96 88 92 100 106 111 115 117 118 121 126 134 138 130 117 108 104 101 100 104 107 109 113 118 123 129 131 130 129 130 131 132 134 134 136 141 142 140
162 167 174 180 175 163 156 155 155 164 177 172 163 164 154 135 130 125 119 118 117 115 116 120 118 114 115 116 115 111 104 98 91 80 67 60 65 82 92 99 103 104 104 102 102 104 105 105 105 105 107 108 108 109 114 116 110 102 105 114 114 109 104 102 97 97 105 111 114 117 118 115 117 123 125 126 131 134 131 131 135 141 144 142 140
170 171 182 185 170 155 152 152 156 169 182 176 166 167 158 146 140 134 131 136 138 134 134 136 132 131 132 128 124 120 114 109 101 83 71 67 74 85 92 93 90 90 92 94 98 104 108 110 110 107 105 104 103 104 108 106 94 86 90 100 106 107 104 101 98 103 113 116 112 110 110 107 107 115 122 124 127 126 127 132 138 137 138 144 149
171 183 189 175 158 158 161 156 157 167 179 182 176 172 166 155 148 145 149 154 152 147 147 145 143 151 155 148 146 155 164 159 133 96 83 82 85 91 97 97 91 88 90 89 90 93 95 95 97 101 105 110 115 118 117 112 105 101 99 101 106 111 113 114 116 117 116 116 115 115 115 111 111 118 121 119 120 122 128 136 135 131 142 161 167
169 182 177 160 157 167 164 158 167 179 184 183 179 176 173 165 158 158 164 165 160 156 154 148 149 162 172 167 171 216 251 201 118 103 94 95 100 104 109 112 109 108 108 104 101 100 98 96 100 105 107 110 113 113 113 117 122 125 126 126 127 127 128 132 132 123 118 118 119 118 116 115 117 121 118 119 127 134 136 137 136 141 163 184 177
162 165 161 159 168 170 160 163 180 189 186 181 179 179 177 172 170 172 172 168 164 161 157 153 155 167 184 192 200 248 293 107 121 119 111 111 113 113 117 122 123 122 121 117 114 114 115 114 114 114 112 112 115 117 123 133 138 139 138 137 135 133 134 134 129 123 123 124 119 115 117 121 125 125 118 116 122 131 134 138 144 154 173 183 168
161 157 158 166 169 165 169 183 191 189 185 182 182 184 180 176 181 183 175 171 170 166 161 157 155 167 193 207 213 236 285 118 129 131 124 122 123 119 118 120 121 122 123 121 118 120 124 126 125 125 124 124 127 132 137 141 141 142 143 143 142 142 138 133 130 131 133 132 127 125 126 123 116 116 121 124 127 133 137 144 152 160 170 167 159
161 158 166 176 170 168 186 198 191 185 187 187 187 187 182 179 186 186 177 176 177 171 164 158 152 167 195 200 199 200 168 137 143 144 134 127 128 134 136 131 124 121 122 124 125 128 130 128 127 127 128 129 131 133 134 135 140 144 144 143 145 145 141 137 140 145 144 137 130 128 129 123 114 119 133 144 152 151 154 163 164 165 175 167 163
166 164 173 182 178 180 196 201 189 184 189 192 189 183 178 182 189 186 180 181 180 174 167 159 154 166 181 183 186 194 186 168 162 151 140 141 152 158 150 138 132 132 133 133 134 134 131 128 126 124 122 119 116 117 119 120 120 130 139 143 143 140 141 146 155 159 153 143 136 134 136 138 138 140 145 155 157 146 152 171 170 169 189 182 166
167 163 169 179 184 191 199 196 187 186 191 193 187 178 179 190 195 187 184 186 183 179 169 154 154 167 173 174 188 210 203 171 152 140 145 163 168 155 139 133 138 144 141 135 135 133 130 129 128 125 122 117 109 108 111 108 102 109 128 145 151 144 145 154 163 161 154 147 147 153 154 152 157 158 148 150 162 155 159 181 180 173 196 187 164
165 168 176 183 189 194 194 187 185 190 194 193 187 179 184 196 199 193 191 189 183 177 167 155 161 174 175 181 200 212 195 160 148 156 175 179 161 145 142 147 152 150 141 137 139 135 132 134 134 128 126 125 118 116 119 114 105 101 104 115 134 144 151 161 164 155 151 152 156 163 164 158 158 155 146 150 173 161 149 161 170 173 200 199 162
169 175 181 183 185 190 190 186 191 199 198 194 190 186 190 199 201 197 194 191 184 179 170 162 168 178 183 195 207 203 173 154 161 173 178 169 150 146 153 156 155 150 143 143 146 142 136 136 133 128 127 125 118 117 122 123 119 115 117 132 137 136 145 157 162 154 158 167 165 163 169 165 149 143 144 148 149 136 130 142 166 173 192 197 150
177 179 183 183 187 193 193 190 195 202 202 198 195 193 196 202 200 193 192 195 196 191 177 164 167 180 192 200 201 182 162 170 179 176 171 164 155 155 160 162 162 160 152 150 154 151 144 141 137 132 133 131 124 123 124 123 127 149 196 213 204 154 145 155 161 157 162 173 171 164 171 164 146 149 164 171 149 145 155 171 172 165 171 179 161
185 186 187 188 192 198 197 193 196 201 202 202 201 198 200 203 199 192 193 198 202 203 188 171 172 182 191 192 185 176 182 194 189 172 164 162 160 160 165 170 171 169 164 164 166 161 152 150 149 144 142 141 137 132 129 131 147 183 219 227 222 203 175 163 160 158 161 165 166 167 170 157 142 150 160 156 147 156 169 174 168 168 174 173 166
190 193 195 196 198 199 194 191 195 200 202 204 203 200 201 203 201 200 200 197 194 201 205 192 182 182 187 189 188 189 199 208 195 167 157 163 169 171 176 181 181 178 176 176 175 169 164 163 160 156 156 154 145 138 139 148 172 211 245 242 218 208 197 183 169 164 164 163 160 169 176 163 148 150 159 165 167 173 178 174 170 173 176 169 166
194 198 202 204 205 200 192 188 193 200 203 203 202 200 201 203 203 205 206 197 188 196 210 209 197 192 192 192 194 201 212 214 199 174 168 176 179 177 180 188 189 185 184 184 180 178 180 179 174 170 169 165 156 157 166 171 164 130 97 93 147 189 197 195 186 175 169 164 157 163 176 167 154 156 173 182 179 181 184 173 164 175 193 191 186